FDX113 KMEM-KMCI

Flight info

Callsign FDX113
Flight time 1h 5m
Altitude 28000
Route DUCKZ5 HELAR HRO NELVY MHOMS3
Aircraft A306/H-SDE3FGHIRWY/LB1

Departure

Time 2026-05-06 15:26
Airport Memphis International Airport (KMEM)

Arrival

Time 2026-05-06 16:32
Airport Kansas City International Airport (KMCI)
Time Latitude Longitude Altitude Speed Heading
2026-05-06 15:13 35.05940 -89.97403 336 ft 8 kts 272°
2026-05-06 15:14 35.05942 -89.97462 335 ft 7 kts 274°
2026-05-06 15:14 35.05948 -89.97520 334 ft 6 kts 279°
2026-05-06 15:14 35.05956 -89.97564 332 ft 8 kts 283°
2026-05-06 15:14 35.05971 -89.97635 332 ft 6 kts 284°
2026-05-06 15:15 35.05980 -89.97677 334 ft 5 kts 284°
2026-05-06 15:15 35.05991 -89.97735 334 ft 9 kts 284°
2026-05-06 15:15 35.06006 -89.97830 335 ft 15 kts 276°
2026-05-06 15:15 35.06012 -89.97991 332 ft 22 kts 272°
2026-05-06 15:16 35.06019 -89.98176 333 ft 21 kts 272°
2026-05-06 15:16 35.06025 -89.98346 332 ft 19 kts 272°
2026-05-06 15:16 35.06027 -89.98468 333 ft 12 kts 266°
2026-05-06 15:16 35.05975 -89.98513 334 ft 10 kts 186°
2026-05-06 15:17 35.05894 -89.98509 333 ft 13 kts 176°
2026-05-06 15:17 35.05794 -89.98506 333 ft 15 kts 180°
2026-05-06 15:17 35.05716 -89.98507 332 ft 9 kts 181°
2026-05-06 15:17 35.05658 -89.98508 334 ft 8 kts 180°
2026-05-06 15:18 35.05600 -89.98507 334 ft 8 kts 179°
2026-05-06 15:18 35.05547 -89.98506 334 ft 7 kts 179°
2026-05-06 15:18 35.05491 -89.98507 334 ft 9 kts 181°
2026-05-06 15:18 35.05420 -89.98509 334 ft 11 kts 181°
2026-05-06 15:19 35.05336 -89.98510 337 ft 13 kts 180°
2026-05-06 15:19 35.05237 -89.98510 334 ft 15 kts 180°
2026-05-06 15:19 35.05125 -89.98510 334 ft 17 kts 180°
2026-05-06 15:19 35.04999 -89.98510 334 ft 19 kts 180°
2026-05-06 15:20 35.04861 -89.98510 334 ft 21 kts 179°
2026-05-06 15:20 35.04709 -89.98507 333 ft 23 kts 180°
2026-05-06 15:20 35.04546 -89.98503 334 ft 24 kts 178°
2026-05-06 15:20 35.04377 -89.98499 334 ft 24 kts 179°
2026-05-06 15:21 35.04217 -89.98498 334 ft 22 kts 179°
2026-05-06 15:21 35.04063 -89.98496 331 ft 21 kts 178°
2026-05-06 15:21 35.03918 -89.98491 332 ft 20 kts 178°
2026-05-06 15:21 35.03779 -89.98487 334 ft 20 kts 179°
2026-05-06 15:22 35.03646 -89.98484 334 ft 19 kts 178°
2026-05-06 15:22 35.03518 -89.98480 334 ft 18 kts 180°
2026-05-06 15:22 35.03394 -89.98483 334 ft 18 kts 182°
2026-05-06 15:22 35.03271 -89.98477 333 ft 18 kts 176°
2026-05-06 15:23 35.03147 -89.98468 334 ft 18 kts 177°
2026-05-06 15:23 35.03022 -89.98465 334 ft 18 kts 179°
2026-05-06 15:23 35.02897 -89.98464 334 ft 18 kts 179°
2026-05-06 15:23 35.02773 -89.98461 334 ft 18 kts 179°
2026-05-06 15:24 35.02652 -89.98458 334 ft 17 kts 179°
2026-05-06 15:24 35.02536 -89.98457 334 ft 15 kts 179°
2026-05-06 15:24 35.02448 -89.98456 333 ft 10 kts 184°
2026-05-06 15:24 35.02408 -89.98495 335 ft 8 kts 249°
2026-05-06 15:25 35.02401 -89.98567 336 ft 10 kts 269°
2026-05-06 15:25 35.02405 -89.98642 336 ft 9 kts 284°
2026-05-06 15:25 35.02476 -89.98695 334 ft 19 kts 357°
2026-05-06 15:25 35.02767 -89.98698 331 ft 72 kts 359°
2026-05-06 15:26 35.03472 -89.98714 336 ft 128 kts 359°
2026-05-06 15:26 35.04142 -89.98726 365 ft 160 kts 360°
2026-05-06 15:26 35.05271 -89.98726 1066 ft 162 kts
2026-05-06 15:26 35.06464 -89.98678 1679 ft 186 kts
2026-05-06 15:27 35.07854 -89.98666 2038 ft 209 kts 348°
2026-05-06 15:27 35.09209 -89.99502 2361 ft 232 kts 326°
2026-05-06 15:27 35.10564 -90.00728 2623 ft 251 kts 325°
2026-05-06 15:27 35.12031 -90.01952 3321 ft 257 kts 323°
2026-05-06 15:28 35.13426 -90.03303 4188 ft 254 kts 307°
2026-05-06 15:28 35.14264 -90.05101 5166 ft 241 kts 284°
2026-05-06 15:28 35.14533 -90.07093 6103 ft 238 kts 272°
2026-05-06 15:28 35.14576 -90.09128 6958 ft 240 kts 270°
2026-05-06 15:29 35.14607 -90.11176 7798 ft 243 kts 270°
2026-05-06 15:29 35.14650 -90.13249 8668 ft 245 kts 270°
2026-05-06 15:29 35.14680 -90.15341 9531 ft 248 kts 269°
2026-05-06 15:29 35.14704 -90.17455 10314 ft 252 kts 269°
2026-05-06 15:30 35.14730 -90.19674 10691 ft 270 kts 269°
2026-05-06 15:30 35.14756 -90.22041 10993 ft 287 kts 269°
2026-05-06 15:30 35.14784 -90.24550 11283 ft 303 kts 269°
2026-05-06 15:30 35.14814 -90.27181 11560 ft 317 kts 269°
2026-05-06 15:31 35.14677 -90.29925 11827 ft 330 kts 260°
2026-05-06 15:31 35.14062 -90.32657 12260 ft 336 kts 252°
2026-05-06 15:31 35.13317 -90.35333 12847 ft 337 kts 252°
2026-05-06 15:32 35.11806 -90.40760 14100 ft 337 kts 251°
2026-05-06 15:32 35.11054 -90.43479 14626 ft 339 kts 251°
2026-05-06 15:32 35.10298 -90.46216 15138 ft 341 kts 251°
2026-05-06 15:32 35.09538 -90.48963 15635 ft 343 kts 251°
2026-05-06 15:33 35.08774 -90.51728 16150 ft 344 kts 251°
2026-05-06 15:33 35.08006 -90.54505 16669 ft 346 kts 252°
2026-05-06 15:33 35.07235 -90.57288 17186 ft 347 kts 252°
2026-05-06 15:33 35.06459 -90.60087 17659 ft 349 kts 252°
2026-05-06 15:34 35.05678 -90.62898 18143 ft 350 kts 252°
2026-05-06 15:34 35.04894 -90.65719 18566 ft 352 kts 252°
2026-05-06 15:34 35.04115 -90.68522 18942 ft 354 kts 252°
2026-05-06 15:34 35.03322 -90.71370 19314 ft 356 kts 252°
2026-05-06 15:35 35.02633 -90.74316 19666 ft 358 kts 258°
2026-05-06 15:35 35.02379 -90.77302 20024 ft 361 kts 265°
2026-05-06 15:35 35.02383 -90.80378 20393 ft 364 kts 268°
2026-05-06 15:35 35.02523 -90.83479 20753 ft 368 kts 272°
2026-05-06 15:36 35.03018 -90.86562 21102 ft 374 kts 280°
2026-05-06 15:36 35.03947 -90.89569 21460 ft 383 kts 288°
2026-05-06 15:36 35.05316 -90.92407 21829 ft 393 kts 297°
2026-05-06 15:36 35.07115 -90.94989 22204 ft 404 kts 304°
2026-05-06 15:37 35.09030 -90.97506 22536 ft 402 kts 301°
2026-05-06 15:37 35.10734 -91.00138 22868 ft 400 kts 298°
2026-05-06 15:37 35.12370 -91.02891 23194 ft 400 kts 297°
2026-05-06 15:37 35.13954 -91.05687 23531 ft 400 kts 296°
2026-05-06 15:38 35.15518 -91.08504 23833 ft 402 kts 296°
2026-05-06 15:38 35.17087 -91.11346 24114 ft 403 kts 296°
2026-05-06 15:38 35.18659 -91.14182 24388 ft 404 kts 296°
2026-05-06 15:38 35.20248 -91.17034 24672 ft 405 kts 296°
2026-05-06 15:39 35.21841 -91.19882 24924 ft 406 kts 296°
2026-05-06 15:39 35.23441 -91.22735 25185 ft 407 kts 296°
2026-05-06 15:39 35.25049 -91.25598 25478 ft 408 kts 296°
2026-05-06 15:39 35.26654 -91.28457 25742 ft 408 kts 296°
2026-05-06 15:40 35.28266 -91.31333 25979 ft 409 kts 296°
2026-05-06 15:40 35.29877 -91.34211 26208 ft 410 kts 296°
2026-05-06 15:40 35.31493 -91.37100 26437 ft 412 kts 295°
2026-05-06 15:40 35.33114 -91.39999 26637 ft 413 kts 295°
2026-05-06 15:41 35.34738 -91.42907 26846 ft 414 kts 295°
2026-05-06 15:41 35.36342 -91.45781 27060 ft 414 kts 295°
2026-05-06 15:41 35.37967 -91.48692 27373 ft 413 kts 295°
2026-05-06 15:41 35.39581 -91.51585 27683 ft 411 kts 295°
2026-05-06 15:42 35.41191 -91.54479 27995 ft 410 kts 295°
2026-05-06 15:42 35.42796 -91.57363 28077 ft 407 kts 295°
2026-05-06 15:42 35.45931 -91.62981 28085 ft 394 kts 294°
2026-05-06 15:43 35.49010 -91.68539 28135 ft 393 kts 294°
2026-05-06 15:43 35.52079 -91.74097 28092 ft 393 kts 294°
2026-05-06 15:44 35.55149 -91.79656 28095 ft 393 kts 294°
2026-05-06 15:44 35.58212 -91.85204 28091 ft 393 kts 294°
2026-05-06 15:45 35.61278 -91.90764 28079 ft 393 kts 294°
2026-05-06 15:45 35.64320 -91.96290 28081 ft 393 kts 294°
2026-05-06 15:46 35.67380 -92.01864 28086 ft 393 kts 294°
2026-05-06 15:46 35.70443 -92.07441 28091 ft 393 kts 294°
2026-05-06 15:47 35.73498 -92.13030 28095 ft 393 kts 294°
2026-05-06 15:47 35.76533 -92.18580 28095 ft 393 kts 294°
2026-05-06 15:48 35.79586 -92.24175 28095 ft 393 kts 293°
2026-05-06 15:48 35.82641 -92.29779 28102 ft 394 kts 293°
2026-05-06 15:49 35.85690 -92.35390 28093 ft 394 kts 293°
2026-05-06 15:49 35.88739 -92.41010 28098 ft 394 kts 293°
2026-05-06 15:50 35.91795 -92.46633 28094 ft 394 kts 293°
2026-05-06 15:50 35.94842 -92.52258 28097 ft 394 kts 293°
2026-05-06 15:51 35.97870 -92.57850 28098 ft 394 kts 293°
2026-05-06 15:51 36.00911 -92.63474 28100 ft 394 kts 293°
2026-05-06 15:52 36.03930 -92.69117 28106 ft 394 kts 293°
2026-05-06 15:52 36.06983 -92.74738 28107 ft 394 kts 293°
2026-05-06 15:53 36.10006 -92.80354 28102 ft 393 kts 293°
2026-05-06 15:53 36.13029 -92.86001 28100 ft 393 kts 292°
2026-05-06 15:54 36.16043 -92.91660 28092 ft 394 kts 292°
2026-05-06 15:54 36.19061 -92.97317 28095 ft 394 kts 293°
2026-05-06 15:55 36.22083 -93.02975 28110 ft 393 kts 292°
2026-05-06 15:55 36.25081 -93.08598 28100 ft 390 kts 292°
2026-05-06 15:56 36.28074 -93.14201 28095 ft 392 kts 294°
2026-05-06 15:56 36.31883 -93.19278 28102 ft 417 kts 309°
2026-05-06 15:57 36.34355 -93.21281 28098 ft 435 kts 319°
2026-05-06 15:57 36.37186 -93.22733 28097 ft 455 kts 329°
2026-05-06 15:57 36.43474 -93.24492 28131 ft 466 kts 335°
2026-05-06 15:58 36.48759 -93.25859 28123 ft 465 kts 334°
2026-05-06 15:58 36.56156 -93.27827 28132 ft 465 kts 334°
2026-05-06 15:59 36.62480 -93.29527 28099 ft 464 kts 334°
2026-05-06 15:59 36.68796 -93.31229 28100 ft 465 kts 334°
2026-05-06 16:00 36.75129 -93.32938 28103 ft 465 kts 334°
2026-05-06 16:00 36.81465 -93.34655 28097 ft 465 kts 333°
2026-05-06 16:01 36.87759 -93.36361 28094 ft 466 kts 334°
2026-05-06 16:01 36.94093 -93.38072 28089 ft 466 kts 334°
2026-05-06 16:02 37.00440 -93.39798 28095 ft 465 kts 333°
2026-05-06 16:02 37.06772 -93.41520 28099 ft 465 kts 333°
2026-05-06 16:03 37.13102 -93.43247 28106 ft 465 kts 333°
2026-05-06 16:03 37.19423 -93.44973 28144 ft 465 kts 333°
2026-05-06 16:04 37.25752 -93.46702 28109 ft 464 kts 333°
2026-05-06 16:04 37.32068 -93.48433 28089 ft 464 kts 333°
2026-05-06 16:05 37.38376 -93.50164 28090 ft 464 kts 333°
2026-05-06 16:05 37.44694 -93.51902 28107 ft 464 kts 333°
2026-05-06 16:06 37.50961 -93.53627 28102 ft 463 kts 333°
2026-05-06 16:06 37.57256 -93.55363 28102 ft 463 kts 333°
2026-05-06 16:07 37.63555 -93.57102 28102 ft 463 kts 333°
2026-05-06 16:07 37.69843 -93.58842 28113 ft 462 kts 333°
2026-05-06 16:08 37.76114 -93.60581 28110 ft 461 kts 332°
2026-05-06 16:08 37.82380 -93.62324 28111 ft 461 kts 332°
2026-05-06 16:09 37.88643 -93.64069 28117 ft 460 kts 332°
2026-05-06 16:09 37.91692 -93.65059 28118 ft 440 kts 326°
2026-05-06 16:09 37.94488 -93.66441 28113 ft 425 kts 321°
2026-05-06 16:10 37.99883 -93.69433 28114 ft 423 kts 321°
2026-05-06 16:10 38.05269 -93.72432 28120 ft 423 kts 321°
2026-05-06 16:11 38.10670 -93.75437 28121 ft 423 kts 321°
2026-05-06 16:11 38.12453 -93.76432 27961 ft 422 kts 321°
2026-05-06 16:11 38.16013 -93.78437 27246 ft 415 kts 321°
2026-05-06 16:12 38.17759 -93.79426 26828 ft 413 kts 321°
2026-05-06 16:12 38.20371 -93.80909 26209 ft 410 kts 321°
2026-05-06 16:12 38.22965 -93.82382 25642 ft 406 kts 321°
2026-05-06 16:12 38.25536 -93.83844 25072 ft 404 kts 321°
2026-05-06 16:13 38.28106 -93.85307 24482 ft 402 kts 321°
2026-05-06 16:13 38.30650 -93.86758 23906 ft 400 kts 322°
2026-05-06 16:13 38.33186 -93.88205 23278 ft 399 kts 322°
2026-05-06 16:13 38.35711 -93.89644 22660 ft 396 kts 322°
2026-05-06 16:14 38.38216 -93.91071 22071 ft 392 kts 323°
2026-05-06 16:14 38.40693 -93.92485 21505 ft 388 kts 323°
2026-05-06 16:14 38.43149 -93.93887 20930 ft 385 kts 323°
2026-05-06 16:14 38.45590 -93.95285 20321 ft 384 kts 323°
2026-05-06 16:15 38.48022 -93.96679 19755 ft 382 kts 324°
2026-05-06 16:15 38.50411 -93.98048 19192 ft 379 kts 324°
2026-05-06 16:15 38.52809 -93.99423 18586 ft 378 kts 324°
2026-05-06 16:15 38.55210 -94.00802 17934 ft 376 kts 325°
2026-05-06 16:16 38.57594 -94.02172 17221 ft 375 kts 326°
2026-05-06 16:16 38.59954 -94.03527 16632 ft 369 kts 327°
2026-05-06 16:16 38.62283 -94.04862 16031 ft 363 kts 327°
2026-05-06 16:16 38.64564 -94.06171 15487 ft 355 kts 328°
2026-05-06 16:17 38.66796 -94.07457 14943 ft 348 kts 327°
2026-05-06 16:17 38.68857 -94.08952 14353 ft 335 kts 318°
2026-05-06 16:17 38.70655 -94.10790 13801 ft 327 kts 314°
2026-05-06 16:17 38.72381 -94.12663 13262 ft 323 kts 315°
2026-05-06 16:18 38.74087 -94.14517 12765 ft 321 kts 315°
2026-05-06 16:18 38.75786 -94.16359 12270 ft 320 kts 316°
2026-05-06 16:18 38.77499 -94.18210 11901 ft 325 kts 316°
2026-05-06 16:18 38.79228 -94.20075 11540 ft 320 kts 317°
2026-05-06 16:19 38.80911 -94.21887 11183 ft 310 kts 317°
2026-05-06 16:19 38.82544 -94.23644 10838 ft 302 kts 318°
2026-05-06 16:19 38.84148 -94.25371 10503 ft 300 kts 319°
2026-05-06 16:19 38.85745 -94.27097 10166 ft 299 kts 319°
2026-05-06 16:20 38.87332 -94.28816 9801 ft 298 kts 319°
2026-05-06 16:20 38.88898 -94.30508 9545 ft 289 kts 319°
2026-05-06 16:20 38.90298 -94.32291 9356 ft 277 kts 307°
2026-05-06 16:20 38.91278 -94.34353 9150 ft 265 kts 299°
2026-05-06 16:21 38.92118 -94.36395 8965 ft 253 kts 298°
2026-05-06 16:21 38.92918 -94.38353 8777 ft 242 kts 298°
2026-05-06 16:21 38.93689 -94.40230 8611 ft 231 kts 299°
2026-05-06 16:21 38.94424 -94.42017 8257 ft 224 kts 299°
2026-05-06 16:22 38.95154 -94.43786 7770 ft 224 kts 300°
2026-05-06 16:22 38.95884 -94.45549 7308 ft 223 kts 300°
2026-05-06 16:22 38.96605 -94.47295 6856 ft 222 kts 300°
2026-05-06 16:22 38.97322 -94.49042 6585 ft 220 kts 301°
2026-05-06 16:23 38.98042 -94.50778 6462 ft 220 kts 301°
2026-05-06 16:23 38.98761 -94.52512 6312 ft 219 kts 301°
2026-05-06 16:23 38.99477 -94.54243 6192 ft 219 kts 301°
2026-05-06 16:23 39.00189 -94.55971 6068 ft 219 kts 301°
2026-05-06 16:24 39.00895 -94.57693 5982 ft 218 kts 301°
2026-05-06 16:24 39.01603 -94.59425 5848 ft 218 kts 301°
2026-05-06 16:24 39.02310 -94.61147 5709 ft 218 kts 301°
2026-05-06 16:24 39.03014 -94.62871 5567 ft 217 kts 301°
2026-05-06 16:25 39.03715 -94.64583 5452 ft 216 kts 301°
2026-05-06 16:25 39.04418 -94.66289 5331 ft 216 kts 301°
2026-05-06 16:25 39.05116 -94.67988 5045 ft 212 kts 301°
2026-05-06 16:25 39.05783 -94.69627 4918 ft 202 kts 300°
2026-05-06 16:26 39.06402 -94.71194 4780 ft 191 kts 300°
2026-05-06 16:26 39.06996 -94.72692 4548 ft 186 kts 297°
2026-05-06 16:26 39.07424 -94.74257 4269 ft 185 kts 291°
2026-05-06 16:26 39.08042 -94.75649 4004 ft 178 kts 327°
2026-05-06 16:27 39.09202 -94.76030 4007 ft 175 kts 358°
2026-05-06 16:27 39.10427 -94.76076 4008 ft 177 kts 358°
2026-05-06 16:27 39.11669 -94.76123 3981 ft 178 kts 358°
2026-05-06 16:27 39.12906 -94.76160 3984 ft 177 kts 359°
2026-05-06 16:28 39.14126 -94.76174 3959 ft 178 kts 360°
2026-05-06 16:28 39.15362 -94.76093 3778 ft 178 kts
2026-05-06 16:28 39.16566 -94.75742 3506 ft 177 kts 14°
2026-05-06 16:28 39.17739 -94.75317 3257 ft 173 kts 15°
2026-05-06 16:29 39.18886 -94.74889 3022 ft 169 kts 16°
2026-05-06 16:29 39.19978 -94.74444 2802 ft 160 kts 17°
2026-05-06 16:29 39.20996 -94.74053 2553 ft 145 kts 14°
2026-05-06 16:29 39.21895 -94.73631 2400 ft 134 kts 22°
2026-05-06 16:30 39.22750 -94.73140 2319 ft 135 kts 21°
2026-05-06 16:30 39.23339 -94.72824 2325 ft 141 kts 19°
2026-05-06 16:30 39.24564 -94.72282 2104 ft 136 kts 15°
2026-05-06 16:30 39.25468 -94.71908 1830 ft 141 kts 19°
2026-05-06 16:31 39.26381 -94.71487 1513 ft 136 kts 15°
2026-05-06 16:31 39.27299 -94.71161 1249 ft 135 kts 11°
2026-05-06 16:31 39.28214 -94.70886 1064 ft 137 kts 12°
2026-05-06 16:31 39.29062 -94.70635 1020 ft 105 kts 14°
2026-05-06 16:32 39.29576 -94.70478 1020 ft 45 kts 13°
2026-05-06 16:32 39.29777 -94.70476 1021 ft 12 kts 340°
2026-05-06 16:32 39.29821 -94.70508 1021 ft 6 kts 318°
2026-05-06 16:32 39.29827 -94.70544 1021 ft 3 kts 258°
2026-05-06 16:33 39.29796 -94.70577 1021 ft 10 kts 198°
2026-05-06 16:33 39.29704 -94.70602 1021 ft 15 kts 193°
2026-05-06 16:33 39.29605 -94.70633 1020 ft 14 kts 192°
2026-05-06 16:34 39.29369 -94.70701 1020 ft 21 kts 193°
2026-05-06 16:34 39.29227 -94.70749 1020 ft 21 kts 194°
2026-05-06 16:34 39.29097 -94.70785 1020 ft 15 kts 201°
2026-05-06 16:34 39.29067 -94.70894 1020 ft 14 kts 275°
2026-05-06 16:35 39.29077 -94.71018 1020 ft 14 kts 276°
2026-05-06 16:35 39.29088 -94.71153 1020 ft 16 kts 276°
2026-05-06 16:35 39.29101 -94.71301 1020 ft 17 kts 276°
2026-05-06 16:35 39.29115 -94.71459 1021 ft 18 kts 276°
2026-05-06 16:36 39.29128 -94.71627 1021 ft 19 kts 276°
2026-05-06 16:36 39.29142 -94.71804 1021 ft 20 kts 276°
2026-05-06 16:36 39.29158 -94.71985 1021 ft 20 kts 276°
2026-05-06 16:36 39.29172 -94.72162 1020 ft 20 kts 276°
2026-05-06 16:37 39.29188 -94.72335 1020 ft 19 kts 277°
2026-05-06 16:37 39.29202 -94.72503 1020 ft 19 kts 276°
2026-05-06 16:37 39.29227 -94.72652 1020 ft 15 kts 313°
2026-05-06 16:37 39.29321 -94.72669 1020 ft 14 kts 17°
2026-05-06 16:38 39.29415 -94.72638 1020 ft 14 kts 13°
2026-05-06 16:38 39.29511 -94.72607 1020 ft 14 kts 14°
2026-05-06 16:38 39.29611 -94.72578 1020 ft 15 kts 13°
2026-05-06 16:38 39.29716 -94.72546 1021 ft 16 kts 13°
2026-05-06 16:39 39.29826 -94.72514 1021 ft 17 kts 12°
2026-05-06 16:39 39.29942 -94.72480 1021 ft 17 kts 13°
2026-05-06 16:39 39.30061 -94.72444 1021 ft 18 kts 13°
2026-05-06 16:39 39.30193 -94.72404 1020 ft 21 kts 13°
2026-05-06 16:40 39.30335 -94.72363 1020 ft 21 kts 12°
2026-05-06 16:40 39.30479 -94.72320 1020 ft 21 kts 13°
2026-05-06 16:40 39.30624 -94.72278 1020 ft 21 kts 13°
2026-05-06 16:40 39.30766 -94.72234 1020 ft 21 kts 14°
2026-05-06 16:41 39.30908 -94.72194 1020 ft 21 kts 12°
2026-05-06 16:41 39.31050 -94.72153 1020 ft 21 kts 13°
2026-05-06 16:41 39.31194 -94.72111 1020 ft 23 kts 12°
2026-05-06 16:41 39.31366 -94.72065 1020 ft 27 kts 13°
2026-05-06 16:42 39.31547 -94.72005 1020 ft 26 kts 13°
2026-05-06 16:42 39.31717 -94.71959 1020 ft 24 kts 13°
2026-05-06 16:42 39.31868 -94.71911 1021 ft 22 kts 13°
2026-05-06 16:42 39.32013 -94.71863 1021 ft 21 kts 12°
2026-05-06 16:43 39.32103 -94.71835 1021 ft 8 kts 18°
2026-05-06 16:43 39.32141 -94.71807 1021 ft 7 kts 47°
2026-05-06 16:43 39.32153 -94.71727 1020 ft 10 kts 96°
2026-05-06 16:43 39.32146 -94.71655 1020 ft 7 kts 98°
2026-05-06 16:44 39.32137 -94.71597 1020 ft 5 kts 102°
2026-05-06 16:44 39.32135 -94.71586 1020 ft 0 kts 103°